Probability
36 38 38 35 33 35 37 37 34 32 33 34 32 29 26 21 17 16 14 11 10 12 16 18 18 18 19 21 20 19 19 20 20 19 16 10 7 7 9 9 6 4 4
39 38 35 31 30 30 30 32 32 30 29 30 30 29 26 22 18 16 14 10 8 8 10 14 16 16 17 18 18 18 18 18 18 17 13 9 7 6 8 8 7 7 8
40 37 31 27 25 24 23 25 29 29 27 26 26 27 25 22 17 15 12 9 7 6 7 10 14 15 15 15 15 14 14 14 14 14 11 9 8 6 5 6 6 6 8
38 35 30 24 21 19 19 22 25 27 26 24 23 23 22 18 14 11 9 8 7 6 6 8 11 13 14 12 10 9 10 10 11 11 10 9 9 6 4 3 3 3 4
39 34 28 23 19 16 18 21 22 23 23 21 20 18 16 12 8 7 6 6 6 5 5 7 7 8 8 7 6 6 6 6 7 8 8 7 7 6 4 1 1 1 1
42 34 26 22 18 17 18 19 19 18 18 17 15 13 10 8 6 4 4 4 3 3 3 4 4 3 2 2 3 3 4 4 4 5 5 4 5 6 4 1 0 0 0
41 34 26 21 18 17 16 15 14 14 14 14 12 9 7 6 5 3 2 2 2 1 1 2 2 1 0 0 1 1 2 3 3 3 3 3 4 4 3 1 0 0 0
40 34 26 20 16 15 13 11 11 11 10 10 9 6 4 4 3 2 1 1 1 0 0 0 0 0 0 0 0 0 1 2 2 2 3 3 4 4 2 1 0 0 0
38 33 24 17 13 12 11 10 11 10 7 6 4 3 2 1 1 0 0 0 0 0 0 0 0 0 0 0 0 0 0 1 1 1 1 3 5 4 2 0 0 0 0
35 31 23 16 13 11 9 9 9 9 6 3 2 2 1 1 0 0 0 0 0 0 0 0 0 0 0 0 0 0 0 0 0 0 1 2 4 4 2 1 0 0 0
32 28 22 16 12 10 8 8 7 6 5 3 2 2 2 1 0 0 0 0 0 0 0 0 0 0 0 0 0 0 0 0 0 0 0 1 2 2 2 1 0 0 0
28 24 18 12 8 7 6 6 5 4 3 2 1 1 1 1 0 0 0 0 0 0 0 0 0 0 0 0 0 0 0 0 0 0 0 0 0 1 1 0 0 0 0
22 19 12 7 5 4 3 4 4 2 1 1 0 0 0 0 0 0 0 0 0 0 0 0 0 0 0 0 0 0 0 0 0 0 0 0 0 0 0 0 0 0 0
14 13 9 6 4 2 1 2 1 1 0 0 0 0 0 0 0 0 0 1 1 1 1 0 0 0 0 0 0 0 0 0 0 0 0 0 0 0 0 0 0 0 0
8 7 5 4 3 1 1 1 0 0 0 0 0 0 0 0 0 0 0 1 1 2 1 0 0 0 0 0 0 0 0 0 0 0 0 0 0 0 0 0 0 0 0
4 4 3 2 2 2 2 1 0 0 0 0 0 0 0 0 0 0 0 0 1 1 1 0 0 0 0 0 0 0 0 0 0 0 0 0 0 0 0 0 0 0 0
3 2 1 1 2 2 2 1 0 0 0 0 0 0 0 0 0 0 0 0 0 0 1 0 0 0 0 0 0 0 0 0 0 0 0 0 0 0 0 0 0 0 0
4 2 1 1 1 1 1 1 0 0 0 0 0 0 0 0 0 0 0 0 0 0 0 0 0 0 0 0 0 0 0 0 0 0 0 0 0 0 0 0 0 0 0
4 2 2 1 1 0 0 0 0 0 0 0 0 0 0 0 0 0 0 0 0 0 0 0 0 0 0 0 0 0 0 0 0 0 0 0 0 0 0 0 0 0 0
1 1 1 1 1 1 1 0 0 0 0 0 0 0 0 0 0 0 0 0 0 0 0 0 0 0 0 0 0 0 0 0 0 0 0 0 0 0 0 0 0 0 0
0 0 0 0 1 2 1 0 0 0 0 0 0 0 0 0 0 0 0 0 0 0 0 0 0 0 0 0 0 0 0 0 0 0 0 0 0 0 0 0 0 0 0
0 0 0 0 1 1 0 0 0 0 0 0 0 0 0 0 0 0 0 0 0 0 0 0 0 0 0 0 0 0 0 0 0 0 0 0 0 0 0 0 0 0 0
0 0 0 0 0 0 0 0 0 0 0 0 0 0 0 0 0 0 0 0 0 0 0 0 0 0 0 0 0 0 0 0 0 0 0 0 0 0 0 0 0 0 0
1 0 0 0 0 0 0 0 0 0 0 0 0 0 0 0 0 0 0 0 0 0 0 0 0 0 0 0 0 0 0 0 0 0 0 0 0 0 0 0 0 0 0
2 1 1 1 1 0 0 0 0 0 0 0 0 0 0 0 0 0 0 0 0 0 0 0 0 0 0 0 0 0 0 0 0 0 0 0 0 0 0 0 0 0 0
2 2 2 2 2 1 0 0 0 0 0 0 0 0 0 0 0 0 0 0 0 0 0 0 0 0 0 0 0 0 0 0 0 0 0 0 0 0 0 0 0 0 0
Wind_Speed
11 10 9 9 8 6 6 6 6 5 3 2 2 2 2 2 3 3 3 2 3 3 2 2 2 2 1 1 2 2 2 2 1 1 1 1 1 1 1 1 2 2 3
12 10 9 8 7 6 6 6 6 5 4 2 1 1 2 2 2 2 2 2 3 3 2 3 2 3 1 1 2 2 2 2 1 1 1 1 1 2 2 2 2 3 3
12 10 9 8 8 7 6 5 5 5 4 3 2 2 2 2 2 2 2 2 3 3 3 3 3 3 3 2 3 3 3 2 2 1 1 1 0 1 2 3 3 4 4
13 10 9 9 8 7 7 6 5 5 4 3 2 2 2 2 2 2 2 2 2 2 3 3 3 4 3 3 4 3 3 2 2 1 1 1 1 0 1 2 3 4 4
13 11 10 9 8 8 7 6 6 5 4 4 4 3 4 3 2 3 3 2 2 2 3 3 3 3 3 3 4 3 3 2 2 2 1 1 1 0 1 1 1 2 2
13 12 10 10 9 8 7 7 6 6 5 5 5 5 5 4 3 2 2 1 2 3 5 5 4 4 3 3 3 3 3 2 2 2 2 1 1 0 0 1 1 1 1
13 12 11 10 9 8 7 7 6 6 5 6 5 4 4 3 4 3 3 3 3 3 4 5 4 3 3 3 3 2 2 3 3 2 2 1 1 1 1 1 1 1 1
13 12 11 10 9 8 7 7 6 6 5 6 5 4 3 3 3 4 3 4 3 3 3 3 3 3 4 4 3 3 3 3 3 3 2 1 1 1 0 0 1 1 1
12 12 11 9 8 8 7 6 6 6 5 5 4 4 4 4 3 3 3 3 3 3 3 3 3 4 4 3 3 2 3 3 3 3 3 2 2 1 1 0 1 2 2
12 11 10 9 8 7 7 6 6 5 5 4 4 4 4 4 4 4 4 4 4 3 3 3 4 4 4 4 4 2 3 3 3 2 3 3 2 2 2 1 0 0 1
13 11 9 8 8 7 7 6 5 5 5 5 4 4 4 4 4 4 4 4 4 4 4 4 4 4 4 4 4 3 3 4 4 4 4 4 4 3 2 2 1 2 2
12 11 10 8 7 7 7 6 5 5 5 5 4 4 4 4 4 4 4 4 4 4 4 4 4 5 5 5 5 5 5 5 5 5 5 5 4 4 3 2 3 2 2
11 10 9 7 7 6 6 5 5 5 4 5 5 4 4 4 4 4 3 4 4 4 4 4 5 5 5 6 6 6 5 5 5 5 5 5 5 5 3 3 3 2 3
11 10 8 7 6 5 5 5 5 4 4 4 4 4 4 3 3 3 3 4 4 4 4 5 5 5 6 7 7 6 5 5 5 5 5 5 5 4 3 3 3 3 3
10 10 9 7 6 5 4 4 4 3 3 4 4 4 4 3 3 3 4 4 4 5 4 5 5 6 6 8 8 5 6 5 5 5 6 6 7 7 4 3 3 3 2
9 9 9 8 7 5 4 4 3 3 3 4 4 4 3 3 3 3 4 4 5 5 5 5 6 7 7 10 11 7 4 4 5 5 4 5 7 8 7 7 5 3 2
9 9 8 7 6 5 4 4 3 3 4 4 4 4 3 3 3 4 4 4 4 4 5 5 6 6 7 11 11 11 5 4 5 5 4 5 6 6 4 4 4 5 5
9 9 8 7 6 5 4 4 4 4 4 4 4 4 3 4 4 4 4 3 3 3 3 4 5 4 6 9 10 10 4 4 5 5 6 6 6 7 5 3 5 5 4
8 7 7 7 6 6 5 4 4 4 4 4 4 4 4 4 4 4 4 3 3 2 3 3 4 4 5 8 10 10 2 3 4 5 6 6 6 9 7 4 4 4 3
8 7 7 7 6 5 4 4 4 4 4 4 4 4 4 4 4 4 3 2 2 2 3 3 3 3 4 6 9 9 3 3 2 3 5 9 8 9 8 4 4 4 3
8 7 7 6 5 5 4 4 4 4 4 4 4 4 4 3 4 3 2 1 2 3 3 2 2 2 3 4 6 8 4 3 2 2 3 4 7 8 8 5 4 3 2
8 7 6 6 5 4 4 5 5 4 4 5 5 4 3 3 4 2 2 1 2 2 1 1 1 1 2 2 3 5 5 4 3 3 3 3 4 5 5 4 4 5 4
7 6 7 7 5 4 4 5 5 4 5 5 4 3 3 3 2 1 1 1 1 1 1 1 1 2 2 2 1 2 4 5 3 3 3 2 2 3 2 3 4 3 2
7 7 7 7 6 5 5 5 5 5 5 5 4 3 3 3 2 1 1 1 1 1 0 0 0 1 2 2 1 1 1 1 1 1 2 4 5 4 3 3 3 2 1
6 6 6 6 6 6 5 5 5 5 5 4 3 3 3 3 3 2 2 2 3 3 2 3 2 2 2 2 3 3 3 3 3 4 3 3 3 3 3 3 2 2 2
7 7 7 6 7 7 6 5 6 5 4 3 3 2 2 3 3 3 2 2 1 2 2 2 2 2 3 2 2 3 4 4 5 4 4 3 2 2 1 2 2 2 1
Wind_Direction
124 122 116 110 103 94 91 87 81 68 61 68 79 85 95 90 78 71 56 33 9 0 358 360 355 340 349 336 335 312 302 285 289 282 272 257 223 155 95 58 35 35 32
128 125 120 114 107 98 90 85 81 74 63 67 84 109 97 86 91 77 61 30 21 10 10 9 356 338 334 352 341 331 320 303 301 288 285 222 169 60 61 73 64 42 41
136 133 128 118 109 100 89 80 74 71 53 49 82 92 98 91 84 97 81 43 29 28 13 13 0 348 355 8 5 357 341 323 314 329 303 304 314 90 63 62 63 54 44
137 139 132 122 114 107 98 89 82 75 59 49 56 81 88 80 60 60 67 55 36 31 28 22 17 8 11 14 1 3 338 331 326 320 311 310 356 128 121 65 55 54 44
140 140 132 124 116 110 102 94 85 71 57 48 47 53 65 68 62 57 59 53 50 40 32 31 24 19 22 18 0 359 352 348 337 331 331 318 295 189 190 176 113 62 43
140 136 128 122 114 107 100 94 88 74 60 55 54 57 67 64 59 46 51 43 56 42 31 36 25 20 16 9 0 356 352 355 350 340 335 331 327 316 212 167 147 98 53
137 134 130 125 116 107 101 96 92 81 70 66 62 61 60 66 61 35 35 33 42 40 21 24 20 15 3 360 1 3 357 1 355 343 336 335 324 313 297 162 154 108 91
136 135 132 126 120 115 108 104 97 88 81 76 66 56 51 55 51 35 34 35 34 39 20 19 20 14 10 11 7 6 10 7 357 4 354 338 351 345 350 187 156 149 123
133 128 126 124 120 115 112 108 101 93 86 83 79 63 54 56 53 41 40 40 28 37 26 20 18 18 15 11 15 22 21 16 15 15 7 11 7 7 18 354 189 163 159
130 127 124 117 112 110 105 101 98 98 93 82 69 72 59 54 52 50 51 41 28 27 26 22 21 21 18 15 18 21 28 31 24 22 19 13 10 21 24 24 18 31 133
134 129 121 116 113 112 114 114 109 100 90 80 69 63 59 52 52 52 50 41 29 26 28 29 31 30 29 24 18 26 32 34 30 27 35 31 25 18 18 34 56 69 92
127 127 125 123 121 118 114 111 110 101 96 92 84 68 64 56 52 51 47 42 34 27 28 34 34 36 36 28 27 31 36 38 34 34 35 29 32 30 27 41 56 75 93
128 128 128 131 131 125 120 116 114 107 104 101 93 81 76 70 58 50 47 44 35 29 29 36 37 38 35 30 30 33 36 40 40 42 43 37 37 37 38 50 60 71 89
135 135 132 128 124 121 121 118 108 109 112 107 106 99 89 78 66 54 49 44 37 37 32 31 38 41 43 34 28 27 41 47 48 53 54 48 45 45 43 58 62 81 92
140 141 136 131 130 125 119 115 114 112 110 110 109 104 98 86 77 64 56 45 34 41 39 37 42 42 46 29 18 20 44 45 50 57 62 66 64 57 52 68 71 84 99
146 144 140 141 140 137 132 127 126 130 128 117 112 105 102 93 79 76 66 53 42 39 41 42 51 48 39 18 19 20 23 39 46 49 54 79 69 64 63 71 75 81 100
146 144 143 143 140 137 136 140 142 140 127 118 111 109 104 91 77 76 73 61 50 48 47 50 60 59 37 21 16 12 9 42 47 44 40 50 55 47 47 73 82 73 67
140 141 142 141 135 132 138 141 133 124 122 118 114 112 106 96 85 80 74 69 65 58 51 57 61 62 42 23 16 2 19 50 56 54 50 52 44 30 24 54 72 75 63
134 136 140 143 143 142 142 137 136 133 133 125 114 106 97 93 88 81 73 72 75 70 62 67 66 61 48 25 18 8 21 56 59 59 51 46 49 25 32 50 66 77 85
127 131 137 136 135 138 141 139 135 129 121 112 103 90 86 88 89 86 81 84 91 90 80 66 62 62 56 29 23 13 13 49 67 86 81 57 45 33 32 41 53 62 54
129 132 133 130 130 135 138 136 126 116 112 107 101 92 87 91 97 94 87 88 93 83 80 76 68 71 65 54 32 27 19 9 25 68 77 56 37 36 29 32 49 40 351
132 135 131 123 122 130 140 132 120 114 112 109 107 105 96 87 90 95 99 108 122 121 123 130 135 113 103 66 43 29 23 6 14 39 66 64 25 20 10 19 6 351 341
135 138 132 128 128 136 138 128 124 124 119 112 114 115 104 93 92 103 129 153 186 175 178 174 152 140 136 131 74 5 3 7 15 24 20 354 316 322 323 293 304 318 313
139 140 136 136 137 138 131 127 127 122 121 124 125 128 131 126 113 69 54 60 31 21 325 193 143 123 104 86 49 350 32 340 352 332 297 277 273 270 276 275 261 249 267
139 141 141 143 145 141 138 143 138 134 134 134 139 140 139 126 117 92 43 42 57 48 24 9 13 47 69 52 36 13 10 3 10 331 285 261 249 229 220 228 225 219 211
143 145 148 149 146 147 148 147 146 149 153 160 179 179 171 170 173 164 145 74 134 138 110 76 48 54 94 122 38 18 349 340 343 324 287 276 266 254 227 228 219 205 210